Regional Weather Roundup
Issued by NWS Glasgow, MT

Home | Current Version | Previous Version | Text Only | Print | Product List | Glossary On
Versions: 1 2 3 4 5 6 7 8 9 10 11 12 13 14 15 16 17 18 19 20 21 22 23 24 25 26 27 28 29 30 31 32 33 34 35 36 37 38 39 40 41 42 43 44 45 46 47 48 49 50
000
ASUS45 KGGW 221515
RWRGGW
HOURLY REGIONAL WEATHER ROUNDUP FOR NORTHEAST MONTANA
NATIONAL WEATHER SERVICE GLASGOW MONTANA
800 AM MST WED FEB 22 2017

NOTE: "FAIR" INDICATES FEW OR NO CLOUDS BELOW 12,000 FEET WITH NO
SIGNIFICANT WEATHER AND/OR OBSTRUCTIONS TO VISISBILITY.

NORTHEAST MONTANA


CITY           SKY/WX    TMP DP  RH WIND       PRES   REMARKS
GLASGOW        LGT SNOW  31  29  92 NW6       29.89R VSB 1
PLENTYWOOD       N/A     30  27  88 N9          N/A
WOLF POINT     MIX PCPN  32  28  85 NE7       29.89R FOG
JORDAN           N/A     31  28  89 N6        29.87R
WINNETT          N/A     32  30  93 NE8         N/A
SIDNEY         FLURRIES  31  30  96 N12       29.85R
GLENDIVE       FLURRIES  30  28  92 N14       29.83R
MALTA            N/A     32  32 100 NE3         N/A

FORT PECK REPORTS


CITY           SKY/WX    TMP DP  RH WIND       PRES   REMARKS
FORT PECK        N/A     30  30 100 N7          N/A
THE PINES        N/A     30  30 100 CALM        N/A

SOUTHEAST MONTANA


CITY           SKY/WX    TMP DP  RH WIND       PRES   REMARKS
BILLINGS       CLOUDY    37  28  70 N12       29.86R
MILES CITY     LGT SNOW  33  32  96 N10       29.83R FOG
BAKER          CLOUDY    31  31 100 NW13      29.77R
LIVINGSTON     CLOUDY    32  26  78 SW13      29.87R

CENTRAL MONTANA


CITY           SKY/WX    TMP DP  RH WIND       PRES   REMARKS
HAVRE          LGT SNOW  31  30  96 E9        29.90R FOG
LEWISTOWN      LGT SNOW  30  29  96 W9        29.85R FOG
GREAT FALLS    CLOUDY    31  29  92 W5        29.86R
CUT BANK       CLOUDY    26  21  81 NW9       29.85R
HELENA         CLOUDY    36  25  64 W12       29.89S
BUTTE          CLOUDY    27  24  89 CALM      29.89S
BOZEMAN        LGT SNOW  32  28  85 SW6       29.91R FOG

WESTERN MONTANA


CITY           SKY/WX    TMP DP  RH WIND       PRES   REMARKS
MISSOULA       CLOUDY    31  30  96 CALM      29.97S
KALISPELL      NOT AVBL

NORTH DAKOTA


CITY           SKY/WX    TMP DP  RH WIND       PRES   REMARKS
WILLISTON      CLOUDY    31  27  85 N14       29.85R
DICKINSON      LGT SNOW  30  28  92 N10       29.74R FOG
MINOT          CLOUDY    32  29  88 N17       29.79R
BISMARCK       LGT SNOW  34  33  96 N6        29.74R FOG

SOUTHERN SASKATCHEWAN


CITY           SKY/WX    TMP DP  RH WIND       PRES   REMARKS
REGINA         MOCLDY    30  25  80 NW8       29.88R
MOOSE JAW      CLOUDY    30  25  80 W6        29.91R
ESTEVAN        PTSUNNY   27  25  93 N7        29.85R
SWIFT CURRENT  CLOUDY    28  28 100 W5        29.88R




USA.gov is the U.S. government's official web portal to all federal, state and local government web resources and services.